Regional Weather Roundup
Issued by NWS

Home | Current Version | Previous Version | Text Only | Print | Product List | Glossary Off
Versions: 1 2 3 4 5 6 7 8 9 10 11 12 13 14 15 16 17 18 19 20 21 22 23 24 25 26 27 28 29 30 31 32 33 34 35 36 37 38 39 40 41 42 43 44 45 46 47 48 49 50

428
ASUS42 KTBW 101017
RWRFL
FLORIDA REGIONAL WEATHER ROUNDUP
NATIONAL WEATHER SERVICE TAMPA BAY RUSKIN FL
500 AM EST SAT DEC 10 2016

NOTE: "FAIR" INDICATES FEW OR NO CLOUDS BELOW 12,000 FEET WITH NO
SIGNIFICANT WEATHER AND/OR OBSTRUCTIONS TO VISIBILITY.

FLZ001>010-012>015-112-114-115-101100-
PANHANDLE FLORIDA

CITY           SKY/WX    TMP DP  RH WIND       PRES   REMARKS
PENSACOLA      CLEAR     36  22  56 NE7       30.50S WCI  30
PENSACOLA NAS  CLEAR     34  22  61 N6        30.49F WCI  29
MILTON NAS     PTCLDY    30  21  69 NE3       30.49
CRESTVIEW      CLEAR     30  21  69 N3        30.51S
DUKE FIELD     FAIR      27  21  80 N6        30.48F WCI  20
VALPARAISO     CLEAR     32  21  64 N8        30.49S WCI  24
MARY ESTHER    CLEAR     32  20  61 N9        30.48S WCI  24
TRI COUNTY     FAIR      31  26  82 CALM      30.50F
PANAMA CITY    FAIR      33  24  69 N6        30.47F WCI  28
TYNDALL AFB    CLEAR     37  24  61 NE9       30.47R WCI  30
APALACHICOLA   CLEAR     37  23  56 NE9       30.45R WCI  30

STATION/POSITION SKY/WX   TEMP    WIND        PRES    WAVE   SWELL
                          AIR SEA DIR/SP/G            HT/PER HT/PER
                          (F)     (DEG/KT/KT) (MB)    (FT/S) (FT/S)
30.1N   87.6W              45 69   50/ 19/ 23 1032.3F   4/ 5
29.2N   88.2W              53 74   30/ 17/ 23 1031.2F   5/ 6
28.8N   86.0W              54 74              1029.6R   4/ 5   2/ 8
PANAMA CITY BEAC           35 65   30/ 10/ 15 1032.0F
TOWER C                    48      40/ 21/ 24 1030.5R
28.5N   84.5W              57 73   40/ 14/ 17 1028.5R   4/ 6

$$
FLZ011-016>038-118-127-128-134-139-239-101100-
NORTH FLORIDA

CITY           SKY/WX    TMP DP  RH WIND       PRES   REMARKS
MARIANNA       CLEAR     33  22  63 NE5       30.48F WCI  29
TALLAHASSEE    PTCLDY    35  25  66 N5        30.46S WCI  31
PERRY          CLOUDY    36  24  61 N6        30.44S WCI  31
CROSS CITY     CLEAR     34  27  75 NE5       30.42R WCI  30
LAKE CITY      FAIR      34  27  75 NE7       30.42S WCI  28
GAINESVILLE    CLEAR     39  26  59 N10       30.40R WCI  32
WILLISTON      CLEAR     41  28  60 N6        30.40R WCI  37
PALATKA        CLOUDY    41  36  81 N8        30.39S WCI  36
MAYPORT NAS    CLEAR     53  39  59 N17       30.40S
JACKSONVILLE   CLEAR     39  28  64 N12       30.42S WCI  32
JAX NAS        CLEAR     46  34  62 N16       30.41S WCI  39
FERNANDINA BEA FAIR      48  39  71 N7        30.40S
ST AUGUSTINE   CLEAR     45  39  79 NW10      30.39R WCI  40

STATION/POSITION SKY/WX   TEMP    WIND        PRES    WAVE   SWELL
                          AIR SEA DIR/SP/G            HT/PER HT/PER
                          (F)     (DEG/KT/KT) (MB)    (FT/S) (FT/S)
SHELL POINT      NOT AVBL
KEATON BEACH               35      30/  6/  9 1030.0R
CEDAR KEY                  43      20/  8/ 11 1029.0S
FERNANDINA                 50 64  350/  9/ 13 1029.9R
30.7N   81.3W                 64                N/A     4/ 4
MAYPORT                    54 64   10/ 12/ 16 1029.4R
31.4N   80.9W              51 62   40/ 16/ 19 1030.4F   3/ 5   2/ 9
ST AUGUSTINE               56 63   10/ 20/ 22 1029.3R

$$
FLZ040-043>046-052-053-057-058-063-144-101100-
INTERIOR CENTRAL FLORIDA

CITY           SKY/WX    TMP DP  RH WIND       PRES   REMARKS
OCALA          CLOUDY    43  30  61 N8        30.37S WCI  38
THE VILLAGES     N/A     45  39  81 MISG      30.26S
LEESBURG       PTCLDY    46  37  71 N8        30.36R WCI  42
SANFORD        PTCLDY    51  44  77 N9        30.32S
ORLANDO EXEC   PTCLDY    51  44  77 N7        30.32R
ORLANDO INTL   CLOUDY    51  45  79 N9        30.32S
KISSIMMEE      PTCLDY    52  45  77 N9        30.32S
WINTER HAVEN   MOCLDY    51  43  74 N10       30.32S
LAKELAND       MOCLDY    46  41  81 N8        30.32S WCI  42
BARTOW         MOCLDY    52  43  71 N13       30.31S
OKEECHOBEE     CLOUDY    55  50  82 N8        30.27S

$$
FLZ041-047-054-059-064-141-147-101100-
EAST CENTRAL FLORIDA

CITY           SKY/WX    TMP DP  RH WIND       PRES   REMARKS
DAYTONA BEACH  MOCLDY    46  43  89 NW6       30.33S WCI  43
DELAND         CLOUDY    48  43  81 N9        30.33R WCI  44
JFK SPACE CTR  PTCLDY    62  52  69 NE6       30.28S
CAPE CANAVERAL PTCLDY    65  53  66 NE7       30.27S
PATRICK AFB    MOCLDY    66  56  68 NE14      30.27S
MELBOURNE      CLOUDY    55  52  89 NW3       30.28R
VERO BEACH     CLOUDY    68  58  70 NE10      30.26R
FT PIERCE      CLOUDY    60  55  83 NW6       30.26R
STUART         CLOUDY    70  64  83 NE12      30.26R

STATION/POSITION SKY/WX   TEMP    WIND        PRES    WAVE   SWELL
                          AIR SEA DIR/SP/G            HT/PER HT/PER
                          (F)     (DEG/KT/KT) (MB)    (FT/S) (FT/S)
TRIDENT PIER               61 71   10/  4/  5 1025.3S
28.4N   80.5W                 69                N/A     3/ 6

$$
FLZ050-056-061-142-242-148-248-149-249-151-251-155-255-
160-260-101100-
WEST CENTRAL FLORIDA

CITY           SKY/WX    TMP DP  RH WIND       PRES   REMARKS
CRYSTAL RIVER  FAIR      43  32  65 N6        30.37S WCI  39
INVERNESS      FAIR      43  36  75 N9        30.37S WCI  37
BROOKSVILLE      N/A    N/A N/A N/A MISG        N/A
CLEARWATER AIR FAIR      46  36  66 N5        30.34R WCI  44
ST PETE CLEARW PTCLDY    50  39  66 N12       30.33S
TAMPA INTL     MOCLDY    50  38  63 N10       30.34R
TAMPA EXEC     PTCLDY    50  39  66 CALM      30.34R
PLANT CITY     MOCLDY    48  41  76 N7        30.34R
MACDILL AFB    MOCLDY    49  39  69 NE8       30.32R
PETER O KNIGHT PTCLDY    52  43  71 NE10G16   30.32S
ST PETERSBURG  CLOUDY    53  46  77 NE15      30.31R
SARASOTA       CLOUDY    51  40  65 NE12      30.29S
VENICE         FAIR      54  45  71 NE16      30.30R

STATION/POSITION SKY/WX   TEMP    WIND        PRES    WAVE   SWELL
                          AIR SEA DIR/SP/G            HT/PER HT/PER
                          (F)     (DEG/KT/KT) (MB)    (FT/S) (FT/S)
CLEARWATER BEACH           50 64   20/ 14/ 17 1027.3R
MIDDLE TAMPA BAY           55      50/ 19/ 21 1026.8R
VENICE                     53 68   30/ 15/ 18 1025.0S

$$
FLZ066-069-070-075>078-162-262-165-265-101100-
SOUTHWEST FLORIDA AND KEYS

CITY           SKY/WX    TMP DP  RH WIND       PRES   REMARKS
PUNTA GORDA    CLOUDY    54  46  74 NE9       30.29S
FT MYERS       CLOUDY    57  48  72 NE12      30.26S
SOUTHWEST INTL CLOUDY    56  47  71 N10       30.26R
NAPLES         CLOUDY    59  50  72 N10       30.22S
MARCO ISLAND   PTCLDY    57  48  72 NE14      30.22S
MARATHON       PTCLDY    70  65  84 NE13      30.17R
KEY WEST NAS   CLOUDY    68  64  87 NE14G23   30.18R
KEY WEST INTL  CLOUDY    69  66  90 NE15G21   30.18S

STATION/POSITION SKY/WX   TEMP    WIND        PRES    WAVE   SWELL
                          AIR SEA DIR/SP/G            HT/PER HT/PER
                          (F)     (DEG/KT/KT) (MB)    (FT/S) (FT/S)
NAPLES                        70              1023.3F
26.0N   85.6W              69 76   30/ 17/ 21 1025.1R   6/ 8   3/ 8
DRY TORTUGAS               69      40/ 24/ 26 1022.3R
SAND KEY                   70      50/ 20/ 24 1021.9R
LONG KEY                   67 75   20/ 18/ 21 1021.9S
MOLASSES REEF              68 78   10/ 16/ 18 1021.7R

$$
FLZ067-068-071>074-168-172>174-101100-
SOUTHEAST FLORIDA

CITY           SKY/WX    TMP DP  RH WIND       PRES   REMARKS
W PALM BEACH   LGT RAIN  65  64  97 NW9       30.23R FOG
FT LAUDER-EXEC LGT RAIN  64  62  93 NW6       30.21R
FT LAUDERDALE  CLOUDY    65  65 100 NW10      30.19R
POMPANO BEACH  LGT RAIN  68  67  96 N9        30.20S
PEMBROKE PINES LGT RAIN  63  62  97 NW9       30.22R FOG
OPA LOCKA      LGT RAIN  65  62  90 N10       30.21R
MIAMI          MOCLDY    64  63  96 N8        30.20S
WEST KENDALL   CLEAR     65  62  90 N10       30.19S
HOMESTEAD      PTCLDY    64  64 100 N6        30.18S

STATION/POSITION SKY/WX   TEMP    WIND        PRES    WAVE   SWELL
                          AIR SEA DIR/SP/G            HT/PER HT/PER
                          (F)     (DEG/KT/KT) (MB)    (FT/S) (FT/S)
PORT EVERGLADES            68     310/  4/  8 1022.2S
VIRGINIA KEY               67 82  340/  7/ 13 1022.6S
LAKE WORTH                 71 76   40/ 18/ 21 1022.7S
FOWEY ROCKS                69 78  350/ 14/ 16 1022.6R

$$





USA.gov is the U.S. government's official web portal to all federal, state and local government web resources and services.